Marshalltown, IA

5:05 AM CST on February 21, 2017 (GMT -0600)
Marshalltown Municipal

Weather History for KMIW - November, 2012

Change the Weather History Date:

Monday, November 5, 2012

  Actual Average Record
Temperature  
Mean Temperature 41 °F 42 °F  
Max Temperature 45 °F 52 °F 71 °F (2015)
Min Temperature 36 °F 32 °F 20 °F (2010)
Degree Days  
Heating Degree Days 24 23  
Month to date heating degree days 118 111  
Since 1 July heating degree days 748 744  
Cooling Degree Days 0 0  
Month to date cooling degree days 0 0  
Year to date cooling degree days 1082 728  
Moisture  
Dew Point 37 °F    
Average Humidity 83    
Maximum Humidity 100    
Minimum Humidity 65    
Precipitation  
Precipitation 0.05 in 0.12 in 0.76 in (2013)
Month to date precipitation 0.09 0.57  
Sea Level Pressure  
Sea Level Pressure 30.13 in    
Wind  
Wind Speed 8 mph (SE)    
Max Wind Speed 14 mph    
Max Gust Speed 18 mph    
Visibility 6 miles    
Events Rain    
T = Trace of Precipitation, MM = Missing Value Source: NWS Daily Summary

Daily Weather History Graph

Daily Weather History Graph

Search for Another Location

Airport or City:

Trip Planner

Search our weather history database for the weather conditions in past years. The results will help you decide how hot, cold, wet, or windy it might be!

Date:

Astronomy

Nov. 05, 2012 Rise Set
Actual Time 6:50 AM CST 4:59 PM CST
Civil Twilight 6:20 AM CST 5:29 PM CST
Nautical Twilight 5:47 AM CST 6:02 PM CST
Astronomical Twilight 5:14 AM CST 6:35 PM CST
Moon 10:38 PM CST (11/5) 12:10 PM CST (11/5)
Length of Visible Light 11h 08m
Length of Day
10h 09m
Waning Gibbous, 62% of the Moon is Illuminated
Nov 5
Waning Gibbous
Nov 6
Last Quarter
Nov 13
New
Nov 20
First Quarter
Nov 28
Full

Hourly Weather History & Observations

Time (CST) Temp. Windchill Dew Point Humidity Pressure Visibility Wind Dir Wind Speed Gust Speed Precip Events Conditions
12:53 AM 39.9 °F 32.9 °F 39.0 °F 97% 30.12 in 5.0 mi SE 11.5 mph - 0.03 in Rain Light Rain
1:07 AM 39.2 °F 32.5 °F 37.4 °F 93% 30.10 in 4.0 mi SE 10.4 mph - 0.01 in Rain Light Rain
1:53 AM 39.9 °F 33.4 °F 37.9 °F 93% 30.12 in 5.0 mi ESE 10.4 mph - 0.01 in Rain Light Rain
2:53 AM 39.9 °F 32.9 °F 39.0 °F 97% 30.11 in 4.0 mi ESE 11.5 mph - 0.01 in Rain Light Rain
3:36 AM 39.2 °F 33.0 °F 39.2 °F 100% 30.09 in 5.0 mi ESE 9.2 mph - 0.00 in   Overcast
3:51 AM 39.2 °F 32.0 °F 39.2 °F 100% 30.09 in 5.0 mi ESE 11.5 mph - 0.00 in   Overcast
3:53 AM 39.9 °F 33.4 °F 39.0 °F 97% 30.11 in 5.0 mi ESE 10.4 mph - 0.00 in   Overcast
4:19 AM 39.2 °F 31.6 °F 37.4 °F 93% 30.09 in 5.0 mi ESE 12.7 mph - 0.01 in   Overcast
4:53 AM 39.9 °F 33.4 °F 39.0 °F 97% 30.12 in 5.0 mi ESE 10.4 mph - 0.01 in   Overcast
5:53 AM 39.9 °F 33.9 °F 37.9 °F 93% 30.12 in 6.0 mi ESE 9.2 mph - 0.00 in   Overcast
6:05 AM 39.2 °F 33.6 °F 37.4 °F 93% 30.10 in 5.0 mi ESE 8.1 mph - N/A   Overcast
6:27 AM 39.2 °F 33.0 °F 37.4 °F 93% 30.10 in 6.0 mi ESE 9.2 mph - N/A   Overcast
6:53 AM 39.0 °F 33.4 °F 37.9 °F 96% 30.13 in 6.0 mi East 8.1 mph - N/A   Overcast
7:53 AM 39.9 °F 33.9 °F 37.9 °F 93% 30.15 in 4.0 mi ESE 9.2 mph - N/A   Overcast
8:53 AM 39.9 °F 33.9 °F 37.9 °F 93% 30.17 in 5.0 mi East 9.2 mph - N/A   Overcast
9:38 AM 41.0 °F 34.7 °F 37.4 °F 87% 30.16 in 5.0 mi ESE 10.4 mph - N/A   Overcast
9:53 AM 41.0 °F 34.7 °F 37.9 °F 89% 30.18 in 5.0 mi ESE 10.4 mph - N/A   Overcast
10:53 AM 42.1 °F 35.7 °F 37.9 °F 85% 30.18 in 5.0 mi ESE 11.5 mph - N/A   Overcast
11:26 AM 44.6 °F 38.4 °F 37.4 °F 76% 30.15 in 6.0 mi ESE 12.7 mph - N/A   Haze
11:49 AM 44.6 °F 38.8 °F 37.4 °F 76% 30.15 in 6.0 mi East 11.5 mph - N/A   Haze
11:53 AM 44.1 °F 38.6 °F 37.0 °F 76% 30.17 in 6.0 mi ESE 10.4 mph - N/A   Haze
12:53 PM 44.1 °F 39.0 °F 36.0 °F 73% 30.15 in 6.0 mi ESE 9.2 mph - N/A   Haze
1:53 PM 45.0 °F 41.2 °F 35.1 °F 68% 30.14 in 9.0 mi SE 6.9 mph - N/A   Overcast
2:41 PM 44.6 °F 40.7 °F 35.6 °F 71% 30.11 in 9.0 mi ESE 6.9 mph - N/A   Overcast
2:53 PM 45.0 °F 40.6 °F 35.1 °F 68% 30.12 in 10.0 mi SSE 8.1 mph - N/A   Overcast
3:53 PM 45.0 °F 42.6 °F 34.0 °F 65% 30.13 in 10.0 mi SSE 4.6 mph - N/A   Overcast
4:53 PM 43.0 °F - 35.1 °F 74% 30.14 in 10.0 mi Calm Calm - N/A   Overcast
5:53 PM 42.1 °F 40.2 °F 35.1 °F 76% 30.15 in 10.0 mi South 3.5 mph - N/A   Overcast
6:53 PM 41.0 °F 39.0 °F 35.1 °F 79% 30.14 in 9.0 mi SSW 3.5 mph - N/A   Overcast
7:53 PM 41.0 °F 38.0 °F 35.1 °F 79% 30.12 in 9.0 mi SSE 4.6 mph - N/A   Overcast
8:53 PM 39.9 °F 36.7 °F 33.1 °F 77% 30.11 in 9.0 mi South 4.6 mph - N/A   Mostly Cloudy
9:53 PM 36.0 °F 32.1 °F 30.9 °F 82% 30.11 in 9.0 mi WSW 4.6 mph - N/A   Mostly Cloudy
10:53 PM 37.9 °F 33.5 °F 34.0 °F 86% 30.10 in 7.0 mi WSW 5.8 mph - N/A   Overcast
11:22 PM 39.2 °F 35.9 °F 35.6 °F 87% 30.07 in 7.0 mi SW 4.6 mph - N/A   Overcast
11:53 PM 39.9 °F 35.8 °F 36.0 °F 86% 30.08 in 7.0 mi SSW 5.8 mph - N/A   Overcast